Total_Precipitation_Accumulation
0.74 0.51 0.55 0.51 0.45 0.41 0.41 0.48 0.56 0.54 0.53 0.56 0.58 0.63 0.58 0.57 0.56 0.57 0.66 0.76 0.92 1.10 1.25 1.37 1.56 1.75 1.89 2.12 1.97 1.67 1.64 1.77 1.91 2.25 2.78 3.06 3.11 3.07 3.10 3.12 3.07 2.72 2.73
0.55 0.45 0.51 0.49 0.48 0.47 0.47 0.54 0.50 0.45 0.48 0.51 0.51 0.61 0.62 0.61 0.59 0.61 0.65 0.79 1.01 1.24 1.32 1.39 1.50 1.80 1.91 2.04 2.05 1.77 1.64 1.75 1.88 2.30 2.98 3.53 3.66 3.52 3.38 3.42 3.16 2.97 2.80
0.46 0.44 0.49 0.54 0.52 0.53 0.50 0.54 0.49 0.45 0.51 0.56 0.55 0.61 0.69 0.64 0.63 0.62 0.69 0.85 1.13 1.32 1.36 1.44 1.61 1.78 1.92 1.94 1.95 1.81 1.79 1.89 2.01 2.46 3.30 3.52 3.64 3.82 3.83 3.64 3.14 2.87 2.53
0.41 0.46 0.47 0.61 0.63 0.59 0.53 0.54 0.55 0.53 0.53 0.60 0.67 0.67 0.74 0.69 0.68 0.72 0.79 0.89 1.16 1.37 1.55 1.59 1.63 1.82 1.92 1.79 1.63 1.80 2.01 2.10 2.30 2.73 3.18 3.19 3.12 3.69 3.65 3.41 2.99 2.76 2.46
0.47 0.50 0.54 0.61 0.68 0.73 0.71 0.70 0.69 0.66 0.66 0.68 0.76 0.81 0.90 0.85 0.79 0.82 0.89 0.96 1.16 1.31 1.58 1.83 1.83 1.83 1.77 1.63 1.57 1.82 2.31 2.32 2.57 2.82 3.03 3.37 3.52 3.76 3.41 3.23 2.83 2.69 2.58
0.60 0.63 0.57 0.77 0.88 0.93 0.91 0.84 0.84 0.80 0.79 0.83 0.87 0.88 0.95 0.95 0.93 0.98 1.04 1.11 1.31 1.43 1.54 1.81 2.05 2.09 1.92 1.97 1.82 1.96 2.41 2.55 2.56 2.69 3.11 3.68 3.76 3.83 3.50 3.28 2.90 2.79 2.61
0.88 0.87 0.72 0.79 0.82 0.91 0.92 0.95 0.91 0.88 0.86 0.94 0.98 0.95 0.97 0.94 0.95 1.11 1.28 1.33 1.46 1.55 1.59 1.69 1.88 2.06 2.05 2.28 2.29 2.26 2.68 2.78 2.57 2.72 3.11 3.45 3.56 3.65 3.58 3.57 3.14 2.80 2.58
1.05 1.00 0.79 0.81 0.81 0.95 1.01 1.03 0.99 0.98 0.98 1.06 1.12 1.08 1.04 1.01 1.07 1.23 1.41 1.53 1.60 1.57 1.57 1.71 1.81 2.03 2.32 2.49 2.58 2.56 2.67 2.70 2.41 2.66 3.02 3.20 3.12 3.25 3.55 3.59 3.23 2.83 2.56
1.10 1.14 0.98 1.00 0.99 1.06 1.14 1.15 1.23 1.16 1.17 1.20 1.20 1.29 1.21 1.18 1.31 1.44 1.51 1.62 1.66 1.67 1.56 1.55 1.72 1.79 2.15 2.35 2.46 2.51 2.53 2.73 2.53 2.57 2.74 3.25 3.06 3.29 3.58 3.44 3.10 2.82 2.56
1.81 1.86 1.63 1.49 1.45 1.37 1.31 1.24 1.34 1.33 1.35 1.44 1.37 1.38 1.41 1.41 1.46 1.58 1.59 1.69 1.65 1.58 1.59 1.58 1.69 1.74 1.87 1.92 1.89 2.05 2.20 2.34 2.37 2.41 2.83 3.06 3.19 3.75 3.94 3.62 3.28 3.02 2.79
2.59 2.66 2.28 1.86 1.71 1.92 1.76 1.43 1.60 1.52 1.47 1.52 1.50 1.50 1.59 1.86 2.04 2.08 1.85 2.03 1.99 1.83 1.76 1.79 1.83 1.77 1.74 1.80 1.84 1.92 1.89 1.67 2.15 2.65 2.83 3.10 3.20 3.78 4.18 3.88 3.56 3.29 2.96
2.89 2.89 2.58 2.08 2.21 2.45 2.15 2.06 2.02 1.80 1.72 1.65 1.79 1.80 1.98 2.54 2.71 2.36 2.43 2.38 2.38 2.27 2.18 2.18 2.16 2.01 1.79 1.67 1.85 1.90 1.59 1.47 1.94 2.57 2.92 3.28 3.56 3.91 4.02 3.80 3.78 3.68 3.30
2.98 2.70 2.37 2.30 2.37 2.64 2.66 2.56 2.46 2.44 2.45 2.45 2.51 2.52 2.75 2.90 2.76 2.61 2.89 2.72 2.66 2.56 2.50 2.55 2.39 2.08 2.01 2.02 1.96 1.87 1.70 1.70 2.03 2.34 2.81 3.27 3.58 3.94 4.19 3.88 3.76 3.94 3.69
2.92 2.85 2.80 2.83 2.72 2.96 3.38 3.39 3.18 3.10 3.04 2.97 2.92 2.78 3.12 3.29 3.21 3.20 3.28 3.21 3.34 3.31 3.28 2.92 2.68 2.45 2.38 2.16 1.93 1.87 1.94 1.97 2.15 2.60 3.06 3.17 3.42 3.74 4.10 4.17 4.05 4.03 3.90
3.22 3.13 3.11 3.21 3.22 3.35 3.84 4.08 3.80 3.67 3.49 3.37 3.28 3.27 3.34 3.34 3.38 3.53 3.49 3.69 3.66 3.57 3.39 3.16 2.74 2.71 2.55 2.40 2.23 2.05 2.15 2.31 2.39 2.72 2.95 3.09 3.21 3.46 3.99 4.49 4.47 4.33 4.15
3.50 3.30 3.25 3.32 3.31 3.42 3.69 3.96 4.03 3.96 4.03 3.93 3.65 3.59 3.62 3.59 3.67 3.71 3.72 3.69 3.54 3.36 3.42 3.36 3.13 3.08 2.87 2.69 2.48 2.43 2.43 2.44 2.56 2.64 2.84 3.12 2.97 3.06 3.64 4.29 4.71 4.64 4.55
3.80 3.76 3.62 3.61 3.75 3.70 3.73 3.81 3.80 3.84 4.14 4.19 4.16 4.12 3.90 3.79 3.82 3.82 3.85 3.74 3.58 3.51 3.59 3.50 3.43 3.36 3.17 3.03 2.93 2.79 2.73 2.62 2.58 2.64 2.88 3.12 3.10 3.14 3.39 3.81 4.32 4.60 4.69
4.24 4.21 3.82 3.49 3.80 3.90 3.95 3.96 3.99 4.03 4.26 4.28 4.21 4.36 4.13 4.15 4.04 3.95 3.76 3.57 3.52 3.50 3.73 3.77 3.66 3.68 3.54 3.40 3.38 3.05 2.94 2.92 2.70 2.80 2.88 2.98 3.33 3.42 3.51 3.54 3.80 4.25 4.61
4.76 4.54 4.01 3.74 3.86 4.04 4.03 4.16 4.37 4.54 4.55 4.44 4.30 4.40 4.28 4.31 4.25 4.17 4.14 4.05 3.89 3.95 3.95 3.62 3.73 3.84 3.86 3.79 3.41 3.24 3.07 2.98 2.87 2.79 2.76 2.80 3.12 3.40 3.50 3.55 3.68 3.87 4.23
4.85 4.76 4.33 4.14 4.39 4.41 4.32 4.35 4.47 4.60 4.64 4.75 4.76 4.70 4.58 4.55 4.64 4.84 4.83 4.67 4.46 4.34 4.29 4.33 4.31 4.04 3.86 3.85 3.50 3.40 3.23 2.96 2.86 2.82 2.67 2.68 2.88 2.88 3.04 3.17 3.47 3.54 3.73
4.10 4.19 4.38 4.42 4.52 4.57 4.60 4.62 4.77 4.94 4.95 4.94 5.05 5.08 4.96 4.90 5.08 5.46 5.51 5.37 5.01 4.69 4.51 4.51 4.52 4.31 4.01 3.84 3.91 3.74 3.33 2.97 2.88 2.76 2.74 2.73 2.59 2.63 2.84 3.03 3.13 3.13 3.21
3.91 4.11 4.35 4.38 4.55 4.84 5.26 5.78 6.06 6.19 6.04 5.84 5.73 5.67 5.53 5.44 5.58 5.69 5.82 5.51 5.14 4.93 4.65 4.41 4.41 4.27 3.97 3.91 4.01 4.11 3.67 3.37 2.83 2.43 2.53 2.54 2.54 2.61 2.63 2.65 2.75 2.86 2.89
3.53 3.88 4.16 4.50 4.89 5.41 6.10 6.92 7.26 7.04 6.59 6.35 6.06 6.00 5.73 5.51 5.49 5.67 5.44 5.21 5.01 4.78 4.55 4.37 4.39 4.36 4.01 3.86 3.98 4.26 3.94 3.55 3.14 2.77 2.49 2.40 2.50 2.57 2.59 2.63 2.56 2.67 2.74
3.14 3.62 4.11 4.66 5.24 5.92 6.58 7.04 7.28 7.19 6.93 6.61 6.14 5.74 5.36 5.03 4.85 4.79 4.71 4.48 4.39 4.25 4.10 3.89 3.95 4.06 3.99 3.73 3.67 3.50 3.43 3.33 3.30 3.00 2.70 2.50 2.48 2.52 2.56 2.49 2.48 2.62 2.70
3.05 3.54 4.06 4.57 5.27 5.77 6.32 6.74 7.03 7.06 6.97 6.60 5.87 5.22 4.79 4.42 4.16 3.88 3.68 3.64 3.64 3.60 3.42 3.24 3.29 3.35 3.32 3.30 3.29 3.14 3.13 3.12 3.05 2.93 2.81 2.72 2.65 2.48 2.43 2.43 2.46 2.52 2.62
2.99 3.53 3.93 4.29 5.00 5.68 6.19 6.56 6.85 6.86 6.69 6.07 5.33 4.77 4.35 4.02 3.75 3.47 3.31 3.21 3.20 3.12 2.95 2.83 2.82 2.82 2.85 2.89 2.99 3.00 2.94 2.85 2.79 2.85 2.68 2.61 2.61 2.45 2.40 2.38 2.34 2.44 2.56